Location: Launois
(49.6535°N, 4.5395°E)
Time: 20:59:52
(UTC+00:00)

Resurs 1-4 Rocket - Pass Details

Date: 23 May 2024
Orbit: 798 x 813 km, 98.7° (Epoch: 16 June)

Event Time Altitude Azimuth Distance (km) Brightness Sun altitude
Rises 00:25:38 0° 27° (NNE) 3,318 6.7 -18.9°
Reaches altitude 10° 00:28:42 10° 45° (NE) 2,381 5.4 -18.8°
Maximum altitude 00:32:21 19° 90° (E) 1,839 4.1 -18.7°
Drops below altitude 10° 00:35:58 10° 134° (SE) 2,370 4.3 -18.6°
Enters shadow 00:36:01 10° 134° (SE) 2,382 4.3 -18.6°
